Skip Page Navigation
NASA JPL Caltech
NASA Logo - Jet Propulsion Laboratory + View the NASA Portal
+ Near-Earth Object (NEO) Program
Search JPL
JPL Home Earth Solar System Stars & Galaxies Technology
JPL Solar System Dynamics
BODIES ORBITS EPHEMERIDES TOOLS PHYSICAL DATA DISCOVERY FAQ SITE MAP
JPL Small-Body Database Browser
Search: [ help ]  
209083 Rioja (2003 SN15)
Classification: Main-belt Asteroid          SPK-ID: 2209083
Ephemeris | Orbit Diagram | Orbital Elements | Physical Parameters | Discovery Circumstances | Close-Approach Data ]

[ show orbit diagram ]
Orbital Elements at Epoch 2457000.5 (2014-Dec-09.0) TDB
Reference: JPL 5 (heliocentric ecliptic J2000)
 Element Value Uncertainty (1-sigma)   Units 
e .06810188643988735 1.039e-07  
a 2.68788694438496 5.3922e-08 AU
q 2.504836772935199 2.7494e-07 AU
i 6.131541417892539 9.6575e-06 deg
node 267.6772722187054 0.00010382 deg
peri 48.40083716209883 0.00013368 deg
M 230.099390189433 9.1425e-05 deg
tp 2457581.295994701281
(2016-Jul-11.79599470)
0.00041604 JED
period 1609.588734012644
4.41
4.8435e-05
1.326e-07
d
yr
n .2236596171386796 6.7303e-09 deg/d
Q 2.87093711583472 5.7594e-08 AU
  Orbit Determination Parameters
   # obs. used (total)      90  
   data-arc span      4274 days (11.70 yr)  
   first obs. used      2002-05-10  
   last obs. used      2014-01-21  
   planetary ephem.      DE431  
   SB-pert. ephem.      SB431-BIG16  
   condition code      0  
   fit RMS      .67273  
   data source      ORB  
   producer      Otto Matic  
   solution date      2014-Jun-11 20:02:30  

Additional Information
 Earth MOID = 1.49668 AU 
 T_jup = 3.362 
[ show covariance matrix ]

Ephemeris | Orbit Diagram | Orbital Elements | Physical Parameters | Discovery Circumstances | Close-Approach Data ]

Physical Parameter Table
Parameter Symbol Value Units Sigma Reference Notes
absolute magnitude H 16.6 mag n/a MPO245417  

209083 Rioja           Discovered 2003 Sept. 17 by F. Hormuth at the Starkenburg Observatory, Heppenheim.
Rioja is a wine made from grapes grown in the autonomous community of La Rioja and in parts of Navarre and the Basque province of Álava. The most widely-used grape is the richly flavored Tempranillo. The discoverer remembers this wine well from occasional otherwise cheerless cloudy Spanish observing nights.
NOTE: some special characters may not display properly (any characters within {} are an attempt to place the proper accent above a character)
Reference: 20100330/MPCPages.arcLast Updated: 2010-04-05

[ show close-approach data ]
Ephemeris | Orbit Diagram | Orbital Elements | Physical Parameters | Discovery Circumstances | Close-Approach Data ]
ABOUT SSD CREDITS/AWARDS PRIVACY/COPYRIGHT GLOSSARY LINKS
FirstGov 2014-Oct-26 09:26 UT
(server date/time)  
NASA Home Page
Site Manager:   Donald K. Yeomans
Webmaster  Alan B. Chamberlin